Weather History for KFPR - November, 2013

Change the Weather History Date:

Monday, November 4, 2013

  Actual Average Record
Temperature  
Mean Temperature 76 °F -  
Max Temperature 81 °F 81 °F 88 °F (1946)
Min Temperature 72 °F 61 °F 41 °F (1951)
Cooling Degree Days 12    
Growing Degree Days 26 (Base 50)    
Moisture  
Dew Point 58 °F    
Average Humidity 56    
Maximum Humidity 73    
Minimum Humidity 43    
Precipitation  
Precipitation 0.03 in - - ()
Sea Level Pressure  
Sea Level Pressure 30.09 in    
Wind  
Wind Speed 10 mph (ENE)    
Max Wind Speed 16 mph    
Max Gust Speed 25 mph    
Visibility 10 miles    
Events      
Averages and records for this station are not official NWS values.
T = Trace of Precipitation, MM = Missing Value Source: NWS Daily Summary

Daily Weather History Graph

Daily Weather History Graph

Search for Another Location

Airport or City:

Trip Planner

Search our weather history database for the weather conditions in past years. The results will help you decide how hot, cold, wet, or windy it might be!

Date:

Astronomy

Nov. 04, 2013 Rise Set
Actual Time 6:34 AM EST 5:35 PM EST
Civil Twilight 6:10 AM EST 5:59 PM EST
Nautical Twilight 5:42 AM EST 6:27 PM EST
Astronomical Twilight 5:14 AM EST 6:54 PM EST
Moon 7:38 AM EST (11/4) 6:44 PM EST (11/4)
Length of Visible Light 11h 49m
Length of Day
11h 01m
New Moon, 2% of the Moon is Illuminated
Nov 4
New Moon
Nov 10
First Quarter
Nov 17
Full
Nov 25
Last Quarter
Dec 2
New

Hourly Weather History & Observations

Time (EST) Temp. Heat Index Dew Point Humidity Pressure Visibility Wind Dir Wind Speed Gust Speed Precip Events Conditions
12:53 AM 73.0 °F - 52.0 °F 48% 30.07 in 10.0 mi NE 6.9 mph - N/A   Partly Cloudy
1:53 AM 72.0 °F - 50.0 °F 46% 30.06 in 10.0 mi NE 6.9 mph - N/A   Clear
2:53 AM 72.0 °F - 48.0 °F 43% 30.06 in 10.0 mi NE 4.6 mph - N/A   Partly Cloudy
3:53 AM 73.9 °F - 57.0 °F 55% 30.05 in 10.0 mi ENE 6.9 mph - N/A   Overcast
4:53 AM 73.9 °F - 57.9 °F 57% 30.06 in 10.0 mi ENE 13.8 mph 23.0 mph 0.00 in   Overcast
5:53 AM 73.9 °F - 55.9 °F 53% 30.06 in 10.0 mi ENE 10.4 mph 18.4 mph N/A   Overcast
6:53 AM 75.0 °F - 55.0 °F 50% 30.09 in 10.0 mi ENE 12.7 mph 19.6 mph N/A   Overcast
7:53 AM 75.0 °F - 55.9 °F 51% 30.11 in 10.0 mi ENE 10.4 mph 20.7 mph N/A   Overcast
8:53 AM 78.1 °F - 55.9 °F 46% 30.11 in 10.0 mi ENE 11.5 mph 19.6 mph N/A   Mostly Cloudy
9:53 AM 78.1 °F - 57.0 °F 48% 30.12 in 10.0 mi ENE 16.1 mph 25.3 mph 0.00 in   Scattered Clouds
10:53 AM 77.0 °F - 59.0 °F 54% 30.12 in 10.0 mi ENE 13.8 mph 21.9 mph N/A   Mostly Cloudy
11:53 AM 81.0 °F 81.6 °F 60.1 °F 49% 30.10 in 10.0 mi ENE 15.0 mph 24.2 mph N/A   Mostly Cloudy
12:53 PM 79.0 °F - 60.1 °F 52% 30.08 in 10.0 mi ENE 15.0 mph 24.2 mph N/A   Overcast
1:53 PM 78.1 °F - 60.1 °F 54% 30.08 in 10.0 mi ENE 11.5 mph 23.0 mph N/A   Overcast
2:53 PM 78.1 °F - 60.1 °F 54% 30.08 in 10.0 mi NE 12.7 mph 21.9 mph N/A   Overcast
3:53 PM 78.1 °F - 60.1 °F 54% 30.09 in 10.0 mi ENE 15.0 mph 23.0 mph N/A   Overcast
4:53 PM 77.0 °F - 60.1 °F 56% 30.09 in 10.0 mi ENE 11.5 mph 21.9 mph N/A   Overcast
5:53 PM 75.9 °F - 62.1 °F 62% 30.09 in 10.0 mi ENE 13.8 mph 24.2 mph N/A   Mostly Cloudy
6:53 PM 75.9 °F - 61.0 °F 60% 30.10 in 10.0 mi NE 11.5 mph 21.9 mph 0.00 in   Mostly Cloudy
7:53 PM 75.0 °F - 61.0 °F 62% 30.12 in 10.0 mi ENE 11.5 mph 23.0 mph N/A   Scattered Clouds
8:53 PM 73.0 °F - 63.0 °F 71% 30.12 in 10.0 mi NE 8.1 mph 18.4 mph 0.00 in   Mostly Cloudy
9:53 PM 72.0 °F - 63.0 °F 73% 30.12 in 10.0 mi ENE 8.1 mph - 0.03 in   Overcast
10:53 PM 73.9 °F - 63.0 °F 68% 30.12 in 10.0 mi ENE 13.8 mph 25.3 mph N/A   Mostly Cloudy
11:53 PM 73.9 °F - 64.0 °F 71% 30.10 in 10.0 mi East 13.8 mph 25.3 mph N/A   Mostly Cloudy